Location: Davayat
(45.9471°N, 3.1105°E)
Time: 17:32:29
(UTC+00:00)

SKYMED 2 - Pass Details

Date: 01 December 2020
Orbit: 621 x 623 km, 97.9° (Epoch: 23 January)

Event Time Altitude Azimuth Distance (km) Brightness Sun altitude
Exits shadow 18:15:21 22° 5° (N) 1,391 5.2 -22.1°
Maximum altitude 18:18:08 68° 286° (WNW) 673 3.8 -22.6°
Drops below altitude 10° 18:22:26 10° 204° (SSW) 1,987 6.5 -23.3°
Sets 18:24:37 0° 202° (SSW) 2,889 7.4 -23.7°
